COSMOS 1275 DEB, 42103

Orbit data source: Space-Track

COSMOS 1275 DEB, 42103 is space debris in LEO originally from a launch on Thu, 04 Jun 1981 UTC launched from the Plesetsk Missile And Space Complex (PKMTR). Debris objects in space refer to the collection of defunct objects orbiting the Earth. Examples of debris include non-operational satellites, rocket bodies, and fragments generated from explosions, collisions, or faulty payload assembly.

Loading next visibility...
Identifier
42103, 1981-053PP
Orbit
LEO
Country
Flag of CISCIS
Related business
Manufacturer
Unknown
Mission
Spacecraft
Bus & Motor
Unknown
Mass
Unknown
Launch date (UTC)
1981-06-04 (45 years ago)
Launch vehicle
Unknown
Launch site
Plesetsk Missile And Space Complex (PKMTR)
Object type
Payload
Rocket body
Debris
Shape & HBR
Unknown shape, 0.1 m
Radar Cross Section
Small (<0.1 m²)

Expand to show TLE details & history
Last TLE update: 6 days ago

TLE from 6 days ago
0 COSMOS 1275 DEB
1 42103U 81053PP  26167.08377227  .00001790  00000-0  88880-3 0  9997
2 42103  83.1746 303.7209 0029379  67.0202 293.4073 14.16401980644750
Epoch: 2026-06-16T02:00Z
TLE epoch observation values (Epoch: 2026-06-16T02:00:37.924Z)
Latitude
0.00005°
Longitude
9.202°
Altitude
832.139 km
Speed
7.441 km/s
True Right ascension
20h 14m 53s
True Declination
0° 00' 00"
Sunlit
Object was in full shadow at epoch
Visualization orbit readout
Latitude
Unknown
Longitude
Unknown
Altitude
Unknown
Speed
Unknown
Apparent Right ascension
Unknown
Apparent Declination
Unknown
Sunlit
N/A
Visualization observer readout
Local Sidereal Time
21:42:17
Azimuth
Unknown
Elevation
Unknown
Doppler factor
Unknown
Orbital elements
Apogee altitude
855.82 km
Perigee altitude
813.439 km
Semi-major axis
7,212.767 km
Eccentricity
0.00294
Inclination
83.1746°
RAAN
303.7209°
Arg. of periapsis
67.0202°
True anomaly
293.0979°
Mean anomaly
293.4073°
Eccentric anomaly
293.25264°
Mean motion
3.54316 °/min
Orbital period
101.6 mins
BSTAR
0.0008888
Loading maneuver chart data...
Computing Atmospheric mass density...

Documentation

Showing up to 5 results
|